Weather History for KPGA - June, 2014

Change the Weather History Date:

Sunday, June 22, 2014

  Actual Average Record
Temperature  
Mean Temperature 86 °F -  
Max Temperature 98 °F 93 °F 104 °F (1990)
Min Temperature 75 °F 66 °F 55 °F (1989)
Cooling Degree Days 22    
Growing Degree Days 36 (Base 50)    
Moisture  
Dew Point 22 °F    
Average Humidity 9    
Maximum Humidity 17    
Minimum Humidity 4    
Precipitation  
Precipitation 0.00 in - - ()
Sea Level Pressure  
Sea Level Pressure 29.69 in    
Wind  
Wind Speed 5 mph (WSW)    
Max Wind Speed 14 mph    
Max Gust Speed 20 mph    
Visibility 10 miles    
Events      
Averages and records for this station are not official NWS values.
T = Trace of Precipitation, MM = Missing Value Source: NWS Daily Summary

Daily Weather History Graph

Daily Weather History Graph

Search for Another Location

Airport or City:

Trip Planner

Search our weather history database for the weather conditions in past years. The results will help you decide how hot, cold, wet, or windy it might be!

Date:

Astronomy

Jun. 22, 2014 Rise Set
Actual Time 5:06 AM MST 7:48 PM MST
Civil Twilight 4:36 AM MST 8:19 PM MST
Nautical Twilight 3:57 AM MST 8:57 PM MST
Astronomical Twilight 3:14 AM MST 9:41 PM MST
Moon 1:52 AM MST (6/22) 3:37 PM MST (6/22)
Length of Visible Light 15h 43m
Length of Day
14h 41m
Waning Crescent, 20% of the Moon is Illuminated
Jun 22
Waning Crescent
Jun 27
New
Jul 5
First Quarter
Jul 12
Full
Jul 18
Last Quarter

Hourly Weather History & Observations

Time (MST) Temp. Dew Point Humidity Pressure Visibility Wind Dir Wind Speed Gust Speed Precip Events Conditions
12:53 AM 82.0 °F 24.1 °F 12% 29.68 in 10.0 mi SSW 5.8 mph - N/A   Clear
1:53 AM 82.0 °F 19.9 °F 10% 29.68 in 10.0 mi SW 6.9 mph - N/A   Clear
2:53 AM 79.0 °F 19.9 °F 11% 29.69 in 10.0 mi SW 3.5 mph - N/A   Clear
3:53 AM 77.0 °F 19.9 °F 12% 29.70 in 10.0 mi Calm Calm - N/A   Clear
4:53 AM 75.0 °F 24.1 °F 15% 29.72 in 10.0 mi Calm Calm - N/A   Clear
5:53 AM 75.0 °F 27.0 °F 17% 29.75 in 10.0 mi West 3.5 mph - N/A   Clear
6:53 AM 77.0 °F 28.0 °F 17% 29.76 in 10.0 mi South 3.5 mph - N/A   Clear
7:53 AM 79.0 °F 30.0 °F 17% 29.77 in 10.0 mi Calm Calm - N/A   Clear
8:53 AM 84.9 °F 24.1 °F 11% 29.76 in 10.0 mi NW 3.5 mph - N/A   Clear
9:53 AM 88.0 °F 24.1 °F 10% 29.76 in 10.0 mi Variable 3.5 mph - N/A   Clear
10:53 AM 91.0 °F 25.0 °F 9% 29.74 in 10.0 mi Variable 5.8 mph - N/A   Clear
11:53 AM 93.0 °F 26.1 °F 9% 29.71 in 10.0 mi Variable 6.9 mph - N/A   Clear
12:53 PM 93.0 °F 25.0 °F 9% 29.70 in 10.0 mi North 10.4 mph 17.3 mph N/A   Clear
1:53 PM 97.0 °F 25.0 °F 8% 29.67 in 10.0 mi Variable 6.9 mph 17.3 mph N/A   Clear
2:53 PM 93.9 °F 25.0 °F 8% 29.67 in 10.0 mi West 5.8 mph - N/A   Clear
3:53 PM 97.0 °F 21.9 °F 7% 29.64 in 10.0 mi WNW 10.4 mph - N/A   Clear
4:53 PM 93.9 °F 19.0 °F 7% 29.63 in 10.0 mi Calm Calm - N/A   Clear
5:53 PM 95.0 °F 19.9 °F 7% 29.62 in 10.0 mi SSE 4.6 mph - N/A   Clear
6:53 PM 95.0 °F 17.1 °F 6% 29.62 in 10.0 mi NW 13.8 mph 19.6 mph N/A   Clear
7:53 PM 91.9 °F 16.0 °F 6% 29.64 in 10.0 mi West 6.9 mph - N/A   Clear
8:53 PM 89.1 °F 19.0 °F 8% 29.65 in 10.0 mi West 5.8 mph - N/A   Clear
9:53 PM 86.0 °F 18.0 °F 8% 29.68 in 10.0 mi Variable 4.6 mph - N/A   Clear
10:53 PM 87.1 °F 16.0 °F 7% 29.68 in 10.0 mi WSW 8.1 mph - N/A   Clear
11:53 PM 84.0 °F 14.0 °F 7% 29.69 in 10.0 mi SW 4.6 mph - N/A   Clear